Location: Bambrugge
(50.9212°N, 3.9299°E)
Time: 18:02:28
(UTC+00:00)

Helios 1A Rocket - Pass Details

Date: 22 August 2024
Orbit: 512 x 533 km, 98.3° (Epoch: 06 September)

Event Time Altitude Azimuth Distance (km) Brightness Sun altitude
Exits shadow 01:44:09 38° 300° (WNW) 830 3.6 -22.5°
Drops below altitude 10° 01:47:00 10° 335° (NNW) 1,802 5.8 -22.2°
Sets 01:49:11 0° 341° (NNW) 2,694 6.9 -22.0°
